• In Uzbekistan
  • List of Countries
  • For 7 days
  • Water Temperature
  • Satellite Maps
  • Weather Map
  • Weather Widgets
  • user-avatar
    Login

    Hourly Weather La-Plata

    Today, 26 April, Wednesday

    Time Temperature Precipitation Wind Pressure Humidity
    00:00 +11°C° 0 mm 9 mps 751 mmHg 92%
    01:00 +10°C° 0 mm 9 mps 751 mmHg 91%
    02:00 +10°C° 0 mm 9 mps 752 mmHg 90%
    03:00 +8°C° 0 mm 9 mps 752 mmHg 89%
    04:00 +7°C° 0 mm 9 mps 752 mmHg 88%
    05:00 +6°C° 0 mm 9 mps 752 mmHg 87%
    06:00 +7°C° 0 mm 10 mps 753 mmHg 83%
    07:00 +7°C° 0 mm 10 mps 753 mmHg 79%
    08:00 +7°C° 0 mm 11 mps 754 mmHg 74%
    09:00 +9°C° 0 mm 11 mps 754 mmHg 66%
    10:00 +11°C° 0 mm 11 mps 754 mmHg 57%
    11:00 +13°C° 0 mm 11 mps 755 mmHg 48%
    12:00 +13°C° 0 mm 11 mps 755 mmHg 47%
    13:00 +14°C° 0 mm 12 mps 755 mmHg 45%
    14:00 +14°C° 0 mm 12 mps 755 mmHg 44%
    15:00 +13°C° 0 mm 11 mps 755 mmHg 48%
    16:00 +12°C° 0 mm 10 mps 755 mmHg 51%
    17:00 +12°C° 0 mm 9 mps 755 mmHg 55%
    18:00 +11°C° 0 mm 9 mps 755 mmHg 56%
    19:00 +10°C° 0 mm 9 mps 756 mmHg 58%
    20:00 +10°C° 0 mm 9 mps 756 mmHg 60%
    21:00 +10°C° 0 mm 9 mps 756 mmHg 60%
    22:00 +10°C° 0 mm 9 mps 757 mmHg 60%
    23:00 +8°C° 0 mm 9 mps 757 mmHg 60%

    Tomorrow, 27 April, Thursday

    Time Temperature Precipitation Wind Pressure Humidity
    00:00 +9°C° 0 mm 8 mps 758 mmHg 61%
    01:00 +7°C° 0 mm 8 mps 758 mmHg 63%
    02:00 +8°C° 0 mm 7 mps 758 mmHg 64%
    03:00 +6°C° 0 mm 7 mps 759 mmHg 66%
    04:00 +6°C° 0 mm 7 mps 759 mmHg 67%
    05:00 +5°C° 0 mm 7 mps 759 mmHg 69%
    06:00 +7°C° 0 mm 6 mps 760 mmHg 66%
    07:00 +8°C° 0 mm 6 mps 760 mmHg 64%
    08:00 +9°C° 0 mm 6 mps 761 mmHg 62%
    09:00 +11°C° 0 mm 6 mps 761 mmHg 55%
    10:00 +14°C° 0 mm 6 mps 761 mmHg 49%
    11:00 +17°C° 0 mm 6 mps 761 mmHg 43%
    12:00 +18°C° 0 mm 7 mps 760 mmHg 42%
    13:00 +20°C° 0 mm 7 mps 760 mmHg 40%
    14:00 +21°C° 0 mm 8 mps 759 mmHg 38%
    15:00 +18°C° 0 mm 7 mps 759 mmHg 44%
    16:00 +17°C° 0 mm 7 mps 759 mmHg 50%
    17:00 +15°C° 0 mm 6 mps 759 mmHg 56%
    18:00 +15°C° 0 mm 6 mps 759 mmHg 57%
    19:00 +14°C° 0 mm 6 mps 759 mmHg 57%
    20:00 +12°C° 0 mm 7 mps 760 mmHg 58%
    21:00 +12°C° 0 mm 7 mps 760 mmHg 56%
    22:00 +12°C° 0 mm 7 mps 760 mmHg 55%
    23:00 +12°C° 0 mm 7 mps 760 mmHg 53%

    Day after tomorrow, 28 April, Friday

    Time Temperature Precipitation Wind Pressure Humidity
    00:00 +12°C° 0 mm 7 mps 760 mmHg 52%
    01:00 +12°C° 0 mm 8 mps 760 mmHg 51%
    02:00 +12°C° 0 mm 8 mps 760 mmHg 50%
    03:00 +12°C° 0 mm 8 mps 760 mmHg 49%
    04:00 +12°C° 0 mm 8 mps 761 mmHg 48%
    05:00 +11°C° 0 mm 8 mps 761 mmHg 48%
    06:00 +11°C° 0 mm 8 mps 761 mmHg 49%
    07:00 +12°C° 0 mm 8 mps 762 mmHg 50%
    08:00 +12°C° 0 mm 7 mps 762 mmHg 52%
    09:00 +15°C° 0 mm 7 mps 763 mmHg 50%
    10:00 +17°C° 0 mm 6 mps 763 mmHg 49%
    11:00 +20°C° 0 mm 6 mps 763 mmHg 47%
    12:00 +21°C° 0 mm 6 mps 763 mmHg 47%
    13:00 +22°C° 0 mm 5 mps 762 mmHg 46%
    14:00 +23°C° 0 mm 5 mps 762 mmHg 46%
    15:00 +21°C° 0 mm 5 mps 762 mmHg 53%
    16:00 +19°C° 0 mm 4 mps 762 mmHg 60%
    17:00 +18°C° 0 mm 3 mps 762 mmHg 67%
    18:00 +16°C° 0 mm 3 mps 763 mmHg 71%
    19:00 +14°C° 0 mm 3 mps 763 mmHg 76%
    20:00 +13°C° 0 mm 3 mps 763 mmHg 80%
    21:00 +13°C° 0 mm 3 mps 764 mmHg 80%
    22:00 +12°C° 0 mm 3 mps 764 mmHg 81%
    23:00 +12°C° 0 mm 3 mps 764 mmHg 81%

    29 April, Saturday

    Time Temperature Precipitation Wind Pressure Humidity
    00:00 +12°C° 0 mm 3 mps 764 mmHg 80%
    01:00 +11°C° 0 mm 3 mps 764 mmHg 79%
    02:00 +11°C° 0 mm 3 mps 764 mmHg 78%
    03:00 +11°C° 0 mm 3 mps 764 mmHg 78%
    04:00 +11°C° 0 mm 3 mps 764 mmHg 77%
    05:00 +10°C° 0 mm 2 mps 764 mmHg 77%
    06:00 +13°C° 0 mm 2 mps 764 mmHg 72%
    07:00 +15°C° 0 mm 2 mps 765 mmHg 67%
    08:00 +16°C° 0 mm 3 mps 765 mmHg 63%
    09:00 +18°C° 0 mm 3 mps 765 mmHg 58%
    10:00 +21°C° 0 mm 3 mps 765 mmHg 54%
    11:00 +23°C° 0 mm 4 mps 765 mmHg 49%
    12:00 +23°C° 0 mm 4 mps 765 mmHg 48%
    13:00 +25°C° 0 mm 4 mps 764 mmHg 47%
    14:00 +25°C° 0 mm 4 mps 764 mmHg 45%
    15:00 +23°C° 0 mm 4 mps 764 mmHg 51%
    16:00 +21°C° 0 mm 3 mps 763 mmHg 57%
    17:00 +19°C° 0 mm 3 mps 763 mmHg 63%
    18:00 +18°C° 0 mm 3 mps 764 mmHg 66%
    19:00 +17°C° 0 mm 3 mps 764 mmHg 68%
    20:00 +15°C° 0 mm 4 mps 764 mmHg 70%
    21:00 +15°C° 0 mm 4 mps 765 mmHg 70%
    22:00 +14°C° 0 mm 4 mps 765 mmHg 70%
    23:00 +14°C° 0 mm 4 mps 765 mmHg 69%

    30 April, Sunday

    Time Temperature Precipitation Wind Pressure Humidity
    00:00 +14°C° 0 mm 4 mps 765 mmHg 71%
    01:00 +13°C° 0 mm 4 mps 765 mmHg 72%
    02:00 +13°C° 0 mm 4 mps 765 mmHg 73%
    03:00 +13°C° 0 mm 4 mps 765 mmHg 74%
    04:00 +12°C° 0 mm 4 mps 765 mmHg 76%
    05:00 +12°C° 0 mm 4 mps 765 mmHg 78%
    06:00 +13°C° 0 mm 4 mps 765 mmHg 75%
    07:00 +13°C° 0 mm 3 mps 765 mmHg 73%
    08:00 +14°C° 0 mm 3 mps 766 mmHg 71%
    09:00 +18°C° 0 mm 3 mps 766 mmHg 63%
    10:00 +20°C° 0 mm 3 mps 766 mmHg 56%
    11:00 +22°C° 0 mm 3 mps 765 mmHg 49%
    12:00 +24°C° 0 mm 3 mps 765 mmHg 47%
    13:00 +24°C° 0 mm 3 mps 764 mmHg 45%
    14:00 +25°C° 0 mm 3 mps 764 mmHg 43%
    15:00 +22°C° 0 mm 3 mps 764 mmHg 50%
    16:00 +20°C° 0 mm 2 mps 764 mmHg 57%
    17:00 +18°C° 0 mm 2 mps 763 mmHg 64%
    18:00 +17°C° 0 mm 3 mps 764 mmHg 66%
    19:00 +17°C° 0 mm 3 mps 764 mmHg 68%
    20:00 +15°C° 0 mm 4 mps 764 mmHg 70%
    21:00 +15°C° 0 mm 4 mps 764 mmHg 75%
    22:00 +15°C° 0 mm 4 mps 764 mmHg 79%
    23:00 +15°C° 0 mm 4 mps 765 mmHg 83%

    1 May, Monday

    Time Temperature Precipitation Wind Pressure Humidity
    00:00 +14°C° 0 mm 4 mps 765 mmHg 83%
    01:00 +14°C° 0 mm 4 mps 765 mmHg 83%
    02:00 +13°C° 0 mm 4 mps 764 mmHg 84%
    03:00 +13°C° 0 mm 4 mps 765 mmHg 84%
    04:00 +13°C° 0 mm 4 mps 765 mmHg 84%
    05:00 +13°C° 0 mm 4 mps 765 mmHg 84%
    06:00 +14°C° 0 mm 4 mps 765 mmHg 80%
    07:00 +15°C° 0 mm 4 mps 765 mmHg 77%
    08:00 +17°C° 0 mm 4 mps 766 mmHg 73%
    09:00 +18°C° 0 mm 4 mps 766 mmHg 66%
    10:00 +20°C° 0 mm 4 mps 766 mmHg 58%
    11:00 +22°C° 0 mm 5 mps 765 mmHg 50%
    12:00 +23°C° 0 mm 4 mps 765 mmHg 48%
    13:00 +25°C° 0 mm 4 mps 764 mmHg 46%
    14:00 +25°C° 0 mm 4 mps 764 mmHg 44%
    15:00 +22°C° 0 mm 3 mps 764 mmHg 51%
    16:00 +21°C° 0 mm 3 mps 764 mmHg 58%
    17:00 +19°C° 0 mm 3 mps 764 mmHg 65%
    18:00 +18°C° 0 mm 4 mps 764 mmHg 68%
    19:00 +17°C° 0 mm 4 mps 764 mmHg 71%
    20:00 +17°C° 0 mm 4 mps 765 mmHg 74%
    21:00 +17°C° 0 mm 4 mps 765 mmHg 74%
    22:00 +15°C° 0 mm 5 mps 765 mmHg 74%
    23:00 +15°C° 0 mm 5 mps 765 mmHg 74%
    Show more